Orbital Elements at Epoch 2459200.5 (2020-Dec-17.0) TDB
Reference: JPL 17 (heliocentric ecliptic J2000)
Element | Value | Uncertainty (1-sigma) | Units |
e | .211207513543281 | 6.5495e-08 | |
a | 2.611658369816797 | 2.1845e-08 | au |
q | 2.060056499303292 | 1.7223e-07 | au |
i | 4.839050104015265 | 7.3215e-06 | deg |
node | 148.1022546624086 | 5.5159e-05 | deg |
peri | 179.5884555992443 | 5.6339e-05 | deg |
M | 261.2324580920576 | 1.4858e-05 | deg |
tp | 2459623.445804297771 (2022-Feb-12.94580430) | 6.7498e-05 | TDB |
period | 1541.604525190208 4.22 | 1.9342e-05 5.296e-08 | d yr |
n | .233522926352063 | 2.9299e-09 | deg/d |
Q | 3.163260240330301 | 2.6458e-08 | au |
|
| | Orbit Determination Parameters
Additional Information
|